Weather in Kletsky

Russia / Volgograd Oblast     48°35′55″N   44°41′45″E
temp.,
°C
wind,
m/s
gust,
m/s
humid.,
%
clouds,
%
prec.,
mm/h
press.,
hPa
HPBL,
m
6 august, fri
fri600:00+23ene363779 0.0 101585
03:00+22e3740100 0.0 1014118
06:00+23ene37390 0.0 1015172
09:00+30e45255 0.0 10141456
12:00+33e44205 0.0 10132244
15:00+35e541783 0.0 10112626
18:00+33e651883 0.0 10112383
21:00+26e5102794 0.0 1011156
7 august, sat
sat700:00+24e4113158 0.0 1012198
03:00+23e5133290 0.0 1011228
06:00+24e51233100 0.0 1012297
09:00+31ese782175 0.0 1011944
12:00+35ese6715100 0.0 10102034
15:00+37ese7715100 0.0 10092342
18:00+36e781694 0.0 10082271
21:00+29e614236 0.0 1009271
8 august, sun
sun800:00+27e5132470 0.0 1010270
03:00+25e41128100 0.0 1011208
06:00+27ese61524100 0.0 1011415
09:00+34ese91217100 0.0 1011948
12:00+37e91113100 0.0 10101753
15:00+38ese101211100 0.0 10103199
18:00+35ene9131399 0.0 10092158
21:00+32e81515100 0.0 1011558
9 august, mon
mon900:00+30e816215 0.0 1011581
03:00+28e8152937 0.1 1012552
06:00+28ese8143099 0.1 1012748
09:00+33ese9102294 0.1 10121286
12:00+36ese88185 0.0 10121769
15:00+38se88165 0.0 10122171
18:00+36e7817100 0.1 10121814
21:00+28ne5122995 0.1 1012258
10 august, tue
tue1000:00+28ene6152631 0.2 1012353
03:00+25ne4726100 0.2 1011108
06:00+26ne31024100 0.0 1011296
09:00+31e5619100 0.0 1011740
12:00+31ssw3221100 0.0 1010318
15:00+33nnw332096 0.0 10091048
18:00+33w22215 0.0 1009604
21:00+28wnw22295 0.0 100911